Location: Nantong Television Tower
(32.0188°N, 120.8512°E)
Time: 19:28:28
(UTC+08:00)

Daily predictions for brighter satellites

Satellite Brightness Start Highest point End
(mag) Time Altitude Azimuth Time Altitude Azimuth Time Altitude Azimuth
Meteor 1-19 Rocket 4.5 19:11:58 10° S 19:17:35 52° E 19:23:08 10° NNE
Cosmos 1975 2.8 19:15:24 10° N 19:19:29 80° E 19:23:34 10° S
FENGYUN 3A 4.3 19:15:52 10° S 19:21:08 60° W 19:26:27 10° NNW
Aureole 1 Rocket 2.3 19:17:51 10° S 19:21:13 58° ESE 19:24:12 10° NNE
Cosmos 1544 Rocket 3.6 19:17:48 10° N 19:22:08 86° W 19:26:27 10° S
Aurora 2 Rocket 4.3 19:16:40 10° WSW 19:22:21 43° S 19:30:19 10° ESE
Cosmos 2082 Rocket 3.9 19:21:44 10° SE 19:24:18 13° E 19:26:51 10° ENE
Meteor 1-29 4.3 19:25:09 10° NE 19:27:46 21° E 19:30:22 10° SSE
COSMOS 2406 3.8 19:23:09 10° SSW 19:28:49 65° WNW 19:34:30 10° NNE
Cosmos 1437 4.2 19:31:40 10° SSW 19:34:42 41° W 19:37:47 10° N
Resurs 1-3 3.6 19:34:04 10° SSE 19:38:27 89° W 19:42:51 10° NNW
Cosmos 1939 Rocket 3.9 19:37:14 11° SE 19:40:25 28° ENE 19:43:45 10° NNE
DNEPR-1 R/B 3.9 19:38:10 10° NNW 19:42:26 55° ENE 19:46:47 12° SE
Cosmos 1238 Rocket 4.3 19:36:10 10° SSE 19:42:39 52° E 19:48:54 10° NNE
OAO 2 Rocket 3.6 19:38:12 10° WNW 19:43:06 65° N 19:48:01 10° E
Cosmos 1346 3.7 19:41:57 10° SSW 19:44:38 52° W 19:47:21 10° N
GENESIS II 4.3 19:41:14 10° NNW 19:45:08 64° ENE 19:48:25 14° SE
Cosmos 1455 Rocket 4.0 19:42:29 10° NNW 19:46:41 50° W 19:50:51 10° SSW
Hubble Space Telescope 1.9 19:43:22 10° SW 19:46:51 26° SSE 19:49:28 15° ESE
Tiangong 2 4.1 19:45:16 10° NW 19:46:54 13° N 19:48:33 10° NNE
SL-27 R/B 3.6 19:46:35 10° SSW 19:50:07 48° WNW 19:53:41 10° N
Cosmos 1656 Rocket 3.9 19:46:47 10° NNW 19:52:14 68° WSW 19:57:43 10° S
Cosmos 405 Rocket 4.1 19:52:14 10° SSW 19:55:47 41° W 19:59:26 10° N
Cosmos 1833 Rocket 3.7 19:51:39 10° SSE 19:56:07 25° ESE 20:00:37 10° NE
Resurs 01 Rocket 2.7 19:53:58 10° S 19:58:11 43° W 20:02:25 10° NNW
Meteor 2-9 Rocket 4.4 19:53:20 10° N 19:58:48 56° E 20:03:46 13° SSE
GPS 2-04 Rocket1 4.1 19:57:27 10° S 19:59:05 16° SSE 19:59:05 16° SSE
ASTEX 1 3.9 19:57:40 15° SE 20:01:20 41° E 20:05:54 10° N
Cosmos 1441 Rocket 3.3 19:57:39 10° SSW 20:01:22 75° W 20:05:06 10° N
Helios 1A 3.0 19:58:14 13° SSE 20:01:57 69° ENE 20:06:08 10° N
Spot 1 4.1 20:01:31 14° SSE 20:05:18 68° ENE 20:09:34 10° N
SAR-Lupe-4 3.5 20:11:47 22° SSE 20:14:01 79° ENE 20:17:37 10° N
NOSS 8 (H) 4.3 20:10:49 10° SSW 20:14:19 69° ESE 20:17:41 10° NE
CZ-4B DEB 2.4 20:14:28 31° SSE 20:15:45 79° ENE 20:18:44 10° N
Cosmos 921 Rocket 4.3 20:13:00 10° NNE 20:16:42 25° ENE 20:17:57 22° E
Meteor 2-4 Rocket 4.3 20:11:45 10° SSW 20:17:18 61° W 20:23:03 10° N
USA 186 3.8 20:15:13 10° SSW 20:17:54 25° W 20:20:32 10° NW
Helios 1B rocket 3.4 20:15:34 10° N 20:19:35 50° WNW 20:23:34 10° SSW
ASTRO E2 4.1 20:17:48 10° W 20:21:04 24° SSW 20:22:11 21° S
YAOGAN 6 2.5 20:21:01 35° SE 20:22:15 59° ENE 20:25:42 10° N
CENTAUR R/B 4.0 20:20:29 10° NW 20:28:11 46° WSW 20:35:56 11° S
SAR-Lupe-1 4.2 20:28:32 29° S 20:30:14 73° WSW 20:33:49 10° NNW
Cosmos 2181 Rocket 4.1 20:27:02 19° SSE 20:31:29 56° E 20:37:36 10° NNE
ARGOS 4.1 20:29:55 26° ESE 20:31:44 32° ENE 20:36:29 10° N
Cosmos 1892 Rocket 3.5 20:31:41 28° S 20:33:57 68° E 20:38:20 10° NNE
Cosmos 1980 Rocket 4.3 20:32:47 10° NE 20:34:39 12° NE 20:36:26 10° ENE
MOS 1-B Rocket 4.3 20:32:17 29° SE 20:34:59 49° ENE 20:41:07 10° N
Cosmos 1624 Rocket 4.0 20:30:04 10° NNW 20:35:22 73° ENE 20:37:47 33° SSE
COSMOS 2487 2.4 20:34:10 22° SSW 20:36:20 83° WNW 20:39:55 10° NNE
Okean 2 3.8 20:32:40 12° SSW 20:36:25 60° W 20:40:28 10° N
Cosmos 405 3.8 20:34:46 10° NNW 20:38:11 47° W 20:39:51 25° SSW
H-2A R/B 3.3 20:41:47 22° E 20:42:29 23° ENE 20:46:23 10° NNE
MetOp-B 4.3 20:44:21 38° SE 20:46:12 57° ENE 20:51:27 10° N
Meteor 2-19 Rocket 4.4 20:42:03 10° N 20:48:13 77° E 20:51:08 33° SSE
Terra 3.9 20:48:48 13° ENE 20:48:49 13° ENE 20:50:51 10° NE
NOAA 11 4.1 20:46:49 38° SE 20:48:53 69° ENE 20:54:17 10° N
Envisat 4.4 20:44:51 10° SSW 20:49:24 33° W 20:53:59 10° NNW
Cosmos 1606 Rocket 3.4 20:45:08 10° N 20:49:28 89° W 20:50:39 48° S
Cosmos 962 Rocket 4.4 20:47:25 10° N 20:53:38 81° E 20:56:24 35° SSE
Cosmos 2056 Rocket 3.5 20:49:57 10° NNW 20:55:05 77° WSW 20:56:51 41° S
CZ-3A R/B 3.8 20:53:38 10° WSW 20:56:48 17° WNW 20:58:32 10° NNW
Cosmos 1726 Rocket 3.4 20:53:52 10° N 20:58:12 85° W 20:58:58 59° S
SPOT 5 2.6 21:02:45 58° E 21:02:52 58° ENE 21:07:09 10° N
Cosmos 1269 Rocket 4.4 21:03:16 44° E 21:03:16 44° E 21:07:58 10° NNE
SL-24 DEB 4.1 21:03:29 65° SE 21:04:02 75° E 21:08:40 10° N
SL-08 RB Rocket 3.9 21:05:06 51° ENE 21:05:06 51° ENE 21:09:26 10° N
Cosmos 2082 Rocket 2.6 21:02:08 10° SSW 21:07:44 63° WNW 21:13:21 10° NNE
Cosmos 1048 Rocket 4.1 21:09:19 52° E 21:09:19 52° E 21:14:02 10° NNE
SL-8 Rocket 4.0 21:04:22 10° N 21:10:37 67° E 21:12:08 51° SE
Cosmos 2278 3.7 21:09:49 10° NNW 21:15:32 81° WSW 21:16:45 56° S
Cosmos 1437 Rocket 4.4 21:13:22 10° NNW 21:16:44 29° W 21:17:37 26° WSW
Cosmos 2366 rocket 4.1 21:11:46 10° N 21:17:46 54° E 21:18:27 51° ESE
DMSP B5D2-2 4.4 21:12:45 10° NNE 21:17:24 49° E 21:17:24 49° E
Cosmos 2058 Rocket 3.2 21:14:56 10° NNW 21:19:20 67° W 21:19:37 65° WSW
ERS-1 Rocket 4.0 21:21:26 30° SW 21:23:06 39° W 21:27:47 10° NNW
Tiangong 2 4.0 21:22:49 10° NNW 21:24:33 14° N 21:24:45 14° NNE
YAOGAN 11 4.3 21:25:08 62° W 21:25:08 62° W 21:29:22 10° NNW
Cosmos 1656 3.4 21:21:13 10° NNW 21:26:43 87° ENE 21:27:09 76° SSE
Cosmos 1452 Rocket 3.3 21:21:36 10° NNW 21:26:53 81° ENE 21:27:04 79° ESE
Hubble Space Telescope 3.0 21:23:46 10° WSW 21:24:52 17° WSW 21:24:52 17° WSW
OAO 2 Rocket 3.5 21:23:02 10° WNW 21:27:18 57° WSW 21:27:18 57° WSW
Cosmos 1697 Rocket 2.7 21:24:20 10° NNW 21:29:54 63° ENE 21:30:05 63° E
H-2A R/B 3.6 21:31:32 28° NE 21:31:32 28° NE 21:34:27 10° N
Mugunghwa Rocket 4.4 21:22:57 10° WSW 21:31:11 60° S 21:32:20 55° SE
Meteor 1-22 Rocket 4.2 21:28:05 10° N 21:33:13 64° ENE 21:33:13 64° ENE
SPOT 1/Viking Rocket 3.4 21:33:58 88° S 21:34:02 89° WSW 21:39:13 10° NNW
Cosmos 2369 4.1 21:30:43 10° NNW 21:36:15 52° WSW 21:37:07 47° SW
Cosmos 1959 Rocket 4.4 21:32:14 10° N 21:38:37 87° W 21:39:34 67° S
Cosmos 1833 Rocket 4.1 21:34:44 10° SW 21:39:48 34° WNW 21:44:54 10° N
Meteor 2-14 Rocket 4.4 21:34:08 10° N 21:40:09 63° E 21:40:10 63° E
SL-16 R/B 4.2 21:37:22 10° NNE 21:40:25 15° ENE 21:40:42 15° ENE
Cosmos 1626 Rocket 4.2 21:41:21 52° NW 21:41:21 52° NW 21:44:59 10° N
Cosmos 1809 Rocket 4.3 21:39:48 10° N 21:45:54 81° W 21:46:27 73° SSW
SL-19 R/B 4.4 21:54:28 10° NNE 21:58:50 62° N 21:58:50 62° N
Cosmos 2218 Rocket 4.4 21:55:44 10° NNW 22:01:43 54° W 22:02:30 50° WSW
Meteor 2-16 Rocket 4.4 21:56:55 10° N 22:02:50 83° NNE 22:02:50 83° NNE
Lacrosse 5 rocket 4.2 22:07:01 10° NNE 22:08:48 12° NE 22:09:14 12° NE
USA 267 4.5 22:03:57 10° NE 22:06:50 26° ENE 22:06:50 26° ENE
CZ-4B R/B 4.4 22:11:20 10° NNE 22:14:53 46° NNE 22:14:53 46° NNE
Cosmos 1980 Rocket 2.6 22:13:39 10° NNW 22:18:12 59° NNW 22:18:12 59° NNW
H-2A R/B 3.5 22:22:24 29° W 22:22:24 29° W 22:26:05 10° NW
Nadezhda 3 Rocket 4.1 22:21:59 71° WNW 22:21:59 71° WNW 22:28:09 10° N
Terra 3.2 22:27:41 36° NW 22:27:41 36° NW 22:30:42 10° NNW
Cosmos 2322 Rocket 3.3 22:26:10 10° N 22:30:18 36° NE 22:30:18 36° NE
Cosmos 1821 Rocket 4.3 22:34:39 10° N 22:39:52 62° N 22:39:52 62° N
USA 229 DEB 3.9 22:37:50 10° NW 22:44:19 67° W 22:44:19 67° W
USA 229 3.9 22:37:55 10° NW 22:44:25 67° W 22:44:25 67° W
CZ-2C R/B 4.4 22:41:06 10° NNE 22:43:39 25° NE 22:43:39 25° NE
ATLAS CENTAUR R/B 4.4 22:52:10 10° NNW 22:52:21 11° NNW 22:52:21 11° NNW
Lacrosse 5 3.6 22:59:17 30° NNW 22:59:17 30° NNW 23:02:48 10° NNE
SeaSat 1 4.5 23:09:16 22° NNE 23:09:16 22° NNE 23:11:50 10° N
CZ-2C R/B 4.4 23:20:28 38° N 23:20:28 38° N 23:23:58 10° N
SL-16 R/B 3.6 23:19:21 10° NNW 23:22:33 34° NW 23:22:33 34° NW
Lacrosse 5 rocket 4.3 23:44:07 10° NW 23:44:54 15° NW 23:44:54 15° NW
USA 267 4.2 23:47:02 10° NNE 23:53:04 41° NW 23:54:09 38° WNW
